Temp
74 74 74 74 74 74 74 74 74 74 74 73 73 73 75 78 82 82 79 79 76 76 76 75 75 75 76 76 76 76 76 76 75
73 73 73 73 74 74 74 74 74 73 73 73 72 72 73 80 80 80 77 77 75 76 76 75 76 76 75 75 75 75 75 75 75
72 72 72 72 72 72 73 73 73 73 73 72 71 71 73 79 79 76 77 75 76 76 75 75 75 75 75 75 75 75 75 75 75
71 72 72 71 71 72 71 72 72 73 72 72 71 70 69 79 78 78 76 74 74 74 74 74 74 75 75 74 75 74 74 74 74
70 70 71 71 71 71 71 71 71 71 72 71 70 68 69 78 77 79 77 73 75 74 74 74 74 74 74 74 74 74 74 73 73
74 69 70 70 70 70 71 71 70 68 69 70 68 67 79 79 79 80 70 73 73 73 73 73 73 74 73 73 73 73 73 73 73
74 69 66 67 69 69 69 68 67 68 79 77 69 80 78 79 79 79 69 72 73 72 72 72 72 72 72 72 72 72 72 72 73
77 77 76 76 68 77 74 75 78 76 79 79 80 79 80 81 80 75 68 71 73 72 72 71 72 72 72 72 72 72 72 72 72
76 76 75 75 76 76 76 78 77 77 77 79 79 79 80 80 80 77 67 69 72 73 72 72 72 72 72 72 72 72 72 72 72
75 76 76 75 76 76 75 76 76 77 78 78 78 79 79 79 79 79 67 68 71 73 73 73 72 72 72 72 72 72 72 72 71
74 76 74 75 75 76 75 75 75 76 77 77 77 78 78 79 78 78 76 67 70 72 73 73 73 73 73 72 72 72 72 71 71
75 75 74 75 76 72 74 75 75 74 76 75 77 78 79 78 78 77 77 76 67 70 72 73 73 73 73 73 73 72 71 71 71
74 74 74 75 74 73 73 74 73 73 74 76 77 77 78 78 79 78 77 76 78 70 70 72 73 73 73 73 73 72 72 71 71
74 74 74 74 73 72 72 72 72 73 74 74 76 77 76 77 78 77 76 75 75 77 70 69 71 72 73 73 73 72 72 71 71
73 73 73 73 72 71 71 71 72 71 72 72 73 76 77 76 76 77 77 76 73 74 75 74 73 70 72 73 73 73 72 71 70
73 73 73 72 71 72 71 71 70 70 72 69 74 75 77 77 76 76 76 75 75 75 74 74 76 75 69 71 72 73 73 72 71
73 73 73 73 71 70 70 69 69 70 72 69 70 69 73 74 76 75 74 76 76 75 76 76 76 76 76 73 69 70 72 72 71
73 73 73 73 72 70 70 70 67 68 71 71 69 67 70 71 73 72 72 72 74 74 75 76 76 77 77 72 69 65 68 71 72
73 73 73 73 73 71 71 71 69 68 67 70 70 72 70 68 69 72 72 72 72 73 74 75 76 77 76 71 68 65 66 68 70
74 73 74 73 73 73 72 71 70 70 68 69 70 68 68 69 66 67 73 72 73 74 74 75 75 76 76 75 71 64 65 65 67
MSLP
1020.18 1020.19 1020.12 1020.10 1020.05 1020.00 1020.01 1020.05 1020.07 1020.04 1020.05 1020.15 1020.17 1019.78 1019.72 1019.07 1018.92 1018.93 1019.34 1019.26 1019.52 1019.62 1019.38 1019.53 1019.59 1019.53 1019.54 1019.47 1019.26 1019.20 1019.21 1019.36 1019.39
1020.75 1020.71 1020.65 1020.62 1020.44 1020.45 1020.50 1020.38 1020.31 1020.59 1020.49 1020.43 1020.39 1020.26 1020.17 1019.62 1019.44 1019.42 1019.73 1019.89 1020.16 1019.99 1019.90 1020.05 1019.99 1019.93 1020.00 1019.95 1019.80 1019.71 1019.76 1019.78 1019.84
1021.17 1021.10 1021.06 1021.07 1021.08 1021.00 1020.83 1020.83 1020.92 1020.83 1020.84 1020.72 1020.69 1020.57 1020.58 1019.89 1019.93 1020.10 1020.28 1020.55 1020.42 1020.34 1020.52 1020.58 1020.47 1020.41 1020.34 1020.39 1020.30 1020.25 1020.17 1020.22 1020.25
1021.45 1021.43 1021.46 1021.49 1021.46 1021.43 1021.39 1021.36 1021.26 1021.12 1021.08 1021.03 1020.92 1021.16 1021.01 1020.18 1020.32 1020.45 1020.83 1020.90 1020.90 1020.88 1020.98 1020.99 1020.93 1020.78 1020.81 1020.73 1020.69 1020.71 1020.60 1020.69 1020.65
1021.87 1021.81 1021.81 1021.79 1021.76 1021.74 1021.72 1021.67 1021.59 1021.47 1021.41 1021.29 1021.41 1021.57 1021.34 1020.71 1020.66 1020.69 1021.04 1021.23 1021.05 1021.14 1021.29 1021.31 1021.23 1021.17 1021.17 1021.10 1021.15 1021.16 1021.11 1021.17 1021.10
1021.68 1022.21 1022.09 1022.01 1021.98 1021.97 1021.88 1021.84 1021.81 1021.83 1021.75 1021.67 1021.84 1021.74 1021.03 1020.95 1020.77 1020.82 1021.69 1021.49 1021.46 1021.52 1021.59 1021.58 1021.59 1021.56 1021.56 1021.54 1021.50 1021.52 1021.59 1021.62 1021.56
1021.88 1022.35 1022.54 1022.45 1022.25 1022.17 1022.10 1022.08 1022.07 1021.89 1021.27 1021.32 1021.68 1021.07 1021.17 1021.01 1021.00 1021.08 1021.89 1021.62 1021.65 1021.71 1021.81 1021.86 1021.91 1021.93 1021.92 1021.92 1021.93 1022.00 1022.01 1021.93 1021.85
1021.73 1021.79 1021.81 1021.89 1022.20 1021.64 1021.73 1021.59 1021.41 1021.29 1021.24 1021.15 1021.03 1021.10 1021.00 1020.88 1021.03 1021.44 1021.95 1021.82 1021.67 1021.78 1021.95 1022.00 1022.10 1022.15 1022.17 1022.18 1022.21 1022.26 1022.20 1022.16 1022.14
1021.63 1021.64 1021.76 1021.84 1021.74 1021.59 1021.55 1021.32 1021.38 1021.30 1021.28 1021.04 1020.97 1020.91 1020.86 1020.85 1020.96 1021.15 1021.85 1021.90 1021.74 1021.71 1021.89 1022.02 1022.16 1022.20 1022.27 1022.30 1022.34 1022.37 1022.36 1022.33 1022.31
1021.54 1021.56 1021.66 1021.71 1021.73 1021.56 1021.46 1021.36 1021.25 1021.10 1020.99 1020.90 1020.82 1020.66 1020.63 1020.74 1020.84 1020.94 1021.62 1021.84 1021.74 1021.70 1021.72 1021.87 1022.01 1022.13 1022.22 1022.29 1022.31 1022.31 1022.36 1022.39 1022.36
1021.32 1021.34 1021.53 1021.54 1021.59 1021.54 1021.46 1021.25 1021.18 1021.03 1020.97 1020.71 1020.71 1020.64 1020.61 1020.65 1020.81 1020.83 1021.00 1021.61 1021.69 1021.66 1021.62 1021.67 1021.81 1021.92 1022.02 1022.14 1022.19 1022.23 1022.33 1022.40 1022.44
1021.11 1021.17 1021.29 1021.33 1021.46 1021.65 1021.50 1021.28 1021.28 1021.10 1020.89 1020.74 1020.47 1020.53 1020.50 1020.55 1020.55 1020.72 1020.71 1020.89 1021.59 1021.56 1021.52 1021.53 1021.60 1021.71 1021.78 1021.93 1022.08 1022.19 1022.30 1022.37 1022.44
1021.04 1021.05 1021.04 1021.28 1021.43 1021.45 1021.29 1021.11 1021.04 1020.92 1020.72 1020.46 1020.24 1020.33 1020.27 1020.23 1020.27 1020.40 1020.52 1020.69 1020.66 1021.25 1021.42 1021.44 1021.41 1021.50 1021.61 1021.74 1021.91 1022.08 1022.19 1022.27 1022.36
1020.92 1020.84 1020.90 1021.11 1021.20 1021.28 1021.21 1021.08 1021.04 1020.69 1020.50 1020.40 1020.20 1020.02 1020.00 1019.93 1019.96 1020.05 1020.29 1020.49 1020.67 1020.55 1021.00 1021.31 1021.31 1021.34 1021.38 1021.50 1021.65 1021.84 1022.01 1022.12 1022.24
1020.78 1020.76 1020.84 1020.97 1021.05 1021.07 1021.14 1021.00 1020.88 1020.79 1020.63 1020.41 1020.08 1019.73 1019.62 1019.69 1019.74 1019.67 1019.91 1020.04 1020.41 1020.52 1020.55 1020.79 1020.89 1021.18 1021.21 1021.25 1021.35 1021.46 1021.72 1021.91 1022.07
1020.42 1020.43 1020.49 1020.74 1020.80 1020.71 1020.87 1020.84 1020.74 1020.55 1020.62 1020.38 1019.42 1019.05 1018.99 1019.09 1019.32 1019.48 1019.55 1019.60 1019.96 1020.11 1020.29 1020.38 1020.31 1020.48 1021.01 1021.04 1021.09 1021.16 1021.36 1021.63 1021.83
1020.05 1020.16 1020.17 1020.25 1020.49 1020.60 1020.66 1020.75 1020.45 1020.42 1020.47 1020.03 1019.65 1018.60 1018.58 1018.76 1018.81 1019.08 1019.20 1019.14 1019.35 1019.61 1019.72 1019.82 1019.93 1019.98 1020.08 1020.32 1020.72 1020.89 1020.99 1021.21 1021.47
1019.71 1019.81 1019.81 1019.88 1020.13 1020.13 1020.25 1020.40 1020.49 1020.14 1020.17 1020.24 1019.77 1018.95 1018.02 1018.27 1018.56 1018.71 1018.90 1018.98 1019.01 1019.19 1019.24 1019.33 1019.39 1019.48 1019.59 1019.90 1020.29 1020.56 1020.76 1020.86 1020.99
1019.12 1019.28 1019.42 1019.50 1019.66 1019.84 1019.84 1020.01 1020.14 1020.31 1019.90 1019.88 1019.98 1019.66 1019.42 1018.62 1017.85 1018.14 1018.32 1018.60 1018.60 1018.65 1018.77 1018.80 1018.82 1018.98 1019.05 1019.26 1019.47 1019.81 1020.23 1020.53 1020.66
1018.53 1018.78 1018.95 1019.09 1019.19 1019.23 1019.31 1019.53 1019.77 1019.90 1019.81 1019.48 1019.37 1019.60 1019.45 1019.28 1018.93 1017.72 1017.30 1017.97 1017.94 1018.02 1018.01 1018.01 1018.16 1018.29 1018.44 1018.61 1018.85 1019.34 1019.58 1019.88 1020.17
Wind_Speed
12 12 11 12 11 11 12 12 13 12 11 11 12 13 8 5 9 10 11 13 13 13 14 13 13 14 14 14 15 15 16 16 16
10 10 10 10 10 10 9 10 11 10 10 11 11 12 10 8 10 11 8 10 13 12 13 12 13 14 14 15 15 16 15 15 16
8 8 9 9 8 8 8 8 8 9 9 9 10 11 6 7 9 6 9 10 11 12 11 11 12 13 14 14 14 14 14 14 15
7 7 7 7 7 7 6 6 6 7 8 8 10 9 8 6 6 8 5 9 10 11 10 10 10 12 12 12 13 12 13 13 12
7 3 6 6 5 5 5 5 5 5 6 7 7 5 2 6 5 4 6 7 8 9 8 8 9 10 10 11 11 11 12 12 12
3 8 4 3 3 3 3 3 4 4 5 5 3 5 2 2 3 2 6 4 5 6 6 7 7 7 8 8 9 9 9 9 9
2 2 3 3 4 3 3 4 1 6 2 4 5 1 2 1 2 2 3 1 4 5 4 5 5 5 6 6 7 7 6 6 6
2 1 1 1 1 2 3 4 2 1 1 1 2 1 2 1 2 3 1 3 2 4 3 3 3 3 4 4 4 4 4 4 5
2 1 1 1 0 1 2 1 1 2 3 3 3 3 2 2 2 4 3 5 4 4 5 4 4 3 3 2 2 3 2 2 3
3 2 2 1 2 2 2 2 2 3 4 4 4 5 5 4 3 2 6 6 6 6 6 6 6 5 5 4 4 3 3 2 2
4 2 2 3 2 2 3 3 3 3 4 4 5 6 5 6 5 4 5 8 9 8 8 8 8 7 6 6 5 4 4 3 2
5 3 3 3 2 4 3 4 4 4 4 6 5 5 7 6 6 5 4 6 10 10 9 10 9 9 8 8 7 6 5 5 4
6 4 4 3 3 3 3 3 4 4 4 5 4 5 6 7 7 6 5 5 5 9 10 11 10 10 9 8 8 7 7 6 5
6 5 4 5 4 4 4 4 4 4 4 4 5 6 6 7 6 7 7 7 6 5 10 10 10 11 10 10 9 8 8 7 6
6 5 5 5 4 4 4 5 3 4 4 5 7 7 7 6 6 7 7 7 8 7 7 7 8 11 11 11 10 9 9 8 8
8 6 6 6 5 6 5 5 5 4 4 5 6 7 8 9 7 7 7 8 8 8 8 6 6 7 13 12 11 11 10 10 9
8 8 7 7 5 7 7 6 4 4 4 4 4 4 4 5 7 7 7 9 7 8 9 9 9 7 7 10 11 9 11 12 11
9 9 8 7 7 6 7 7 7 5 4 6 4 3 3 3 3 8 7 8 7 7 9 10 10 10 8 7 10 10 10 13 13
10 10 9 9 7 8 7 7 7 7 7 4 6 7 5 3 2 4 5 8 9 10 8 9 10 11 9 10 9 15 14 13 15
9 9 9 10 8 9 9 9 9 7 8 6 5 6 5 6 6 6 4 5 7 9 10 10 9 12 11 10 11 14 15 16 16
Wind_Direction
79 73 70 86 80 73 62 71 67 82 74 80 72 64 63 61 73 79 60 74 71 83 85 90 82 82 84 85 85 86 84 83 83
73 77 80 72 83 89 84 70 68 71 76 74 66 63 49 78 82 67 70 80 83 86 85 87 92 90 89 86 88 86 89 89 84
77 76 74 74 74 70 68 72 73 77 75 76 68 57 15 87 89 86 96 75 82 85 90 87 86 87 91 92 89 91 91 91 90
83 80 80 75 69 79 72 71 73 70 69 72 65 53 23 82 77 86 86 82 80 79 81 81 87 95 95 89 89 91 88 92 92
74 85 70 62 64 64 73 81 74 71 66 70 70 56 270 97 111 87 65 68 92 99 97 91 95 96 96 97 97 93 94 91 88
159 54 56 62 66 71 85 83 76 63 71 74 88 257 83 130 95 99 29 102 96 93 85 95 95 97 95 93 95 98 103 100 98
15 72 18 33 36 65 57 61 123 232 187 150 196 181 140 175 124 105 19 109 120 113 105 103 96 93 98 99 96 93 99 98 105
189 197 184 203 175 195 205 188 212 223 258 195 212 243 201 188 187 127 273 294 177 143 143 128 132 134 125 122 122 130 116 113 97
215 260 324 255 266 270 262 267 289 245 241 248 234 236 230 219 212 155 202 261 242 213 188 185 191 180 176 169 165 160 144 136 123
218 242 250 258 271 268 268 274 275 257 258 251 257 249 234 230 229 241 180 236 243 238 224 213 216 216 221 226 221 213 223 222 201
218 234 234 253 265 275 278 291 280 268 261 268 255 259 254 245 236 227 186 214 240 236 232 224 224 226 230 236 236 234 235 231 209
224 241 234 262 267 263 255 251 262 259 258 263 257 246 251 239 233 226 229 189 223 239 235 232 226 230 233 235 236 235 234 229 217
229 245 246 245 250 259 261 257 254 258 263 266 249 248 244 245 242 229 223 223 235 201 231 233 230 230 233 238 236 234 234 230 218
232 237 244 227 241 244 254 250 258 273 267 268 270 254 248 246 241 233 220 223 229 227 178 225 234 232 231 234 235 233 236 232 222
231 241 244 232 238 242 239 254 242 277 293 286 273 258 243 240 241 238 227 218 220 224 227 201 218 223 229 229 234 231 233 230 225
220 230 231 223 237 239 244 249 254 252 256 283 257 239 241 231 229 230 230 218 219 222 218 219 228 197 220 224 230 232 226 225 222
226 228 230 226 231 231 233 232 241 253 246 276 286 270 182 224 226 220 229 231 217 223 219 218 219 224 211 209 212 227 229 222 219
228 234 236 230 230 238 227 227 233 256 218 241 284 265 260 312 174 219 220 224 221 227 222 224 222 223 221 196 203 211 220 229 222
226 231 234 240 230 238 238 230 233 232 248 222 241 256 284 307 262 183 211 219 225 223 220 227 223 224 223 213 221 188 207 219 228
231 233 239 237 235 239 239 229 230 236 245 244 238 240 245 253 258 280 205 211 224 231 228 225 226 223 223 222 215 204 202 209 218